Lyme Regis, United Kingdom
Current Conditions -  °F | °C
As of 10:50 AM on Friday 31 Oct 2014 (Local Time) from EGTE Reporting Station
Clear Clear  
Wind Chill: 64°   Ceiling: Unl
Heat Index: 64°   Visibility: 6mi
Dew Point: 59°   Wind: 15mph
Humidity: 83%   Direction: 160°SSE
Pressure: 29.97"   Gusts: NA
Location:  50.73°N, 2.93°W
Report Text: EGTE 311050Z 16013KT CAVOK 18/15 Q1015
Loading
Personal Weather Stations






























Interactive Weather Map
Tropical Storm Tracking
New forecast layout! Learn more

10-Day Weather Forecast

Advertisements
Track Severe Weather on mobile